Overview Statistics Trail Chart Weather Telemetry Raw packets
 

This is the latest recevied weather packets stored in our database for station/object KO6LQK. If no packets are shown the sender has not sent any weather packets the latest 10 day(s).

<< 7 8 9 10 11 12 13 >>
Time Temp. Humidity Pressure Rain* Wind** Luminosity Snow
1788394783 27.22° C 25% 1021.1 hPa 0 mm - 338 W/m² -
1788394478 27.22° C 26% 1020.9 hPa 0 mm - 361 W/m² -
1788394178 27.78° C 24% 1021 hPa 0 mm - 380 W/m² -
1788393873 26.67° C 25% 1020.9 hPa 0 mm - 406 W/m² -
1788393571 26.67° C 25% 1021 hPa 0 mm - 424 W/m² -
1788393267 27.22° C 24% 1021 hPa 0 mm - 451 W/m² -
1788392966 27.22° C 24% 1020.9 hPa 0 mm - 471 W/m² -
1788392662 27.78° C 23% 1021.1 hPa 0 mm - 492 W/m² -
1788392361 27.78° C 21% 1021 hPa 0 mm - 505 W/m² -
1788392055 27.78° C 22% 1020.8 hPa 0 mm - 523 W/m² -
1788391754 27.78° C 22% 1021.2 hPa 0 mm - 542 W/m² -
1788391449 27.78° C 22% 1020.9 hPa 0 mm - 551 W/m² -
1788391149 27.78° C 21% 1021.1 hPa 0 mm - 571 W/m² -
1788390844 27.78° C 21% 1021 hPa 0 mm - 580 W/m² -
1788390538 28.33° C 21% 1021.1 hPa 0 mm - 594 W/m² -
1788390238 28.33° C 19% 1021 hPa 0 mm - 607 W/m² -
1788389938 28.89° C 18% 1021.1 hPa 0 mm - 619 W/m² -
1788389633 28.33° C 19% 1021.2 hPa 0 mm - 633 W/m² -
1788389332 28.33° C 17% 1021.4 hPa 0 mm - 649 W/m² -
1788389032 28.33° C 18% 1021 hPa 0 mm - 665 W/m² -
1788388729 28.89° C 16% 1021.4 hPa 0 mm - 693 W/m² -
1788388428 28.33° C 15% 1021.6 hPa 0 mm - 709 W/m² -
1788388123 28.33° C 17% 1021.7 hPa 0 mm - 730 W/m² -
1788387822 28.33° C 16% 1021.6 hPa 0 mm - 742 W/m² -
1788387517 28.33° C 15% 1021.6 hPa 0 mm - 767 W/m² -

* Rain latest hour (hover to see other rain measurements)
** Current wind speed in m/s (hover to see current wind gust speed)